Regional Weather Roundup
Issued by NWS

Home | Current Version | Previous Version | Text Only | Print | Product List | Glossary On
Versions: 1 2 3 4 5 6 7 8 9 10 11 12 13 14 15 16 17 18 19 20 21 22 23 24 25 26 27 28 29 30 31 32 33 34 35 36 37 38 39 40 41 42 43 44 45 46 47 48 49 50
000
ASUS45 KABQ 240510
RWRNM
NEW MEXICO REGIONAL WEATHER ROUNDUP
NATIONAL WEATHER SERVICE ALBUQUERQUE NM
1100 PM MDT MON OCT 23 2017

NOTE: "FAIR" MEANS FEW OR NO CLOUDS BELOW 12,000 FEET AGL WITH NO
       SIGNIFICANT WEATHER OR OBSTRUCTIONS TO VISION.

      THIS PRODUCT IS RELEASED AS TWO VERSIONS.  ONE VERSION NEAR
      THE TOP OF THE HOUR CONTAINING PRELIMINARY DATA FROM ALBUQUERQUE
      AND OTHER STATIONS.  A FINAL VERSION WITH ADDITIONAL DATA IS
      ISSUED ABOUT 10 MINUTES AFTER THE HOUR.

NMZ501-503-504-510>518-240600-
NORTHWEST PLATEAU/NORTHCENTRAL MOUNTAINS

CITY           SKY/WX    TMP DP  RH WIND       PRES   REMARKS
FARMINGTON     FAIR      59  24  26 W12       30.40R
LOS ALAMOS     FAIR      52  30  43 SW13G18   30.51R
SANTA FE       FAIR      50  34  54 S10       30.48R
TAOS           FAIR      47  30  51 E9        30.50R
ANGEL FIRE     FAIR      36  29  78 CALM      30.56S

$$
NMZ402-403-502-505>509-240600-
WESTCENTRAL MOUNTAINS/SOUTHWEST MOUNTAINS

CITY           SKY/WX    TMP DP  RH WIND       PRES   REMARKS
GALLUP         FAIR      39  19  44 NE3       30.49R
GRANTS         FAIR      46  24  42 N7        30.50R
SILVER CITY    MOCLDY    55  21  26 N8        30.36R

$$
NMZ407-409-411-412-240600-
SOUTHERN DESERTS

CITY           SKY/WX    TMP DP  RH WIND       PRES   REMARKS
DEMING         FAIR      58  23  26 NE6       30.29R
LAS CRUCES     FAIR      62  30  29 CALM      30.31R
HOLLOMAN AFB   FAIR      58  36  43 CALM      30.31R
ALAMOGORDO     FAIR      59  32  36 N7        30.31R
T OR C         FAIR      64  29  26 N7        30.34R

$$
NMZ519>523-240600-
CENTRAL VALLEYS/CENTRAL HIGHLANDS

CITY           SKY/WX    TMP DP  RH WIND       PRES   REMARKS
ALBUQUERQUE    FAIR      59  33  37 E23       30.42R
MORIARTY ARPT  FAIR      50  35  57 CALM      30.53R
CLINES CORNERS FAIR      42  32  67 E16       30.54R
BELEN          FAIR      54  26  34 N7        30.40R
SOCORRO        FAIR      58  27  30 CALM      30.39R

$$
NMZ524>526-539-540-240600-
SOUTHCENTRAL MOUNTAINS

CITY           SKY/WX    TMP DP  RH WIND       PRES   REMARKS
RUIDOSO        FAIR      48  32  53 SE5       30.55R

$$
NMZ527>531-240600-
NORTHEAST HIGHLANDS/NORTHEAST PLAINS

CITY           SKY/WX    TMP DP  RH WIND       PRES   REMARKS
LAS VEGAS      FAIR      37  30  75 NE6       30.55R WCI  32
RATON          NOT AVBL
CLAYTON        FAIR      41  25  53 NW9       30.51R

$$
NMZ532>537-240600-
EASTCENTRAL PLAINS

CITY           SKY/WX    TMP DP  RH WIND       PRES   REMARKS
SANTA ROSA     FAIR      49  32  51 NE6       30.49R
TUCUMCARI      FAIR      46  33  60 NE9       30.47R
CANNON AFB     NOT AVBL
CLOVIS AIRPORT   N/A     46  35  65 NE13      30.47R

$$
NMZ028-029-538-240600-
SOUTHEAST PLAINS

CITY           SKY/WX    TMP DP  RH WIND       PRES   REMARKS
ROSWELL        FAIR      57  40  52 N9        30.42R
ARTESIA        FAIR      57  39  51 N9        30.41R
CARLSBAD       FAIR      60  40  47 NE7       30.36R
HOBBS          FAIR      57  37  47 NE15      30.38R


$$




USA.gov is the U.S. government's official web portal to all federal, state and local government web resources and services.